Regional Weather Roundup
Issued by NWS

Home | Current Version | Previous Version | Text Only | Print | Product List | Glossary On
Versions: 1 2 3 4 5 6 7 8 9 10 11 12 13 14 15 16 17 18 19 20 21 22 23 24 25 26 27 28 29 30 31 32 33 34 35 36 37 38 39 40 41 42 43 44 45 46 47 48 49 50
000
ASUS43 KMKX 251000
RWRWI

WISCONSIN REGIONAL WEATHER ROUNDUP
NATIONAL WEATHER SERVICE MILWAUKEE/SULLIVAN WI
500 AM CDT SAT OCT 25 2014

NOTE: "FAIR" INDICATES FEW OR NO CLOUDS BELOW 12,000 FEET WITH NO
SIGNIFICANT WEATHER AND/OR OBSTRUCTIONS TO VISIBILITY.

WIZ001-002-006>008-014>016-023>028-251100-
NORTHWEST WISCONSIN

CITY           SKY/WX    TMP DP  RH WIND       PRES   REMARKS
SUPERIOR ARPT  CLEAR     47  36  64 SW8       29.84S
ASHLAND        CLEAR     49  37  63 SW10      29.82R
HAYWARD        CLEAR     53  35  50 W3        29.87R
SIREN          CLEAR     49  36  60 W8        29.91R
CUMBERLAND     CLEAR     50  36  57 W10       29.90R
RICE LAKE      CLEAR     47  38  70 W6        29.91R
CHETEK         CLEAR     51  40  66 W7        29.90R
LADYSMITH      CLEAR     52  40  65 W10       29.88S
EAU CLAIRE     NOT AVBL
MENOMONIE      CLEAR     52  39  61 W6        29.91S
NEW RICHMOND   CLEAR     50  37  60 W9        29.94R
OSCEOLA        CLEAR     53  38  56 W8        29.96R
$$

WIZ003>005-009-010-017-018-251100-
NORTH CENTRAL WISCONSIN

CITY           SKY/WX    TMP DP  RH WIND       PRES   REMARKS
MANITOWISH WTR CLEAR     47  44  88 W7        29.80S
ARBOR VITAE    CLEAR     52  45  77 W8        29.81R
WOODRUFF       CLEAR     52  45  77 W8        29.81R
RHINELANDER    CLEAR     48  44  86 W9        29.82R
EAGLE RIVER    CLEAR     50  42  75 W9        29.79S
LAND O LAKES   CLEAR     50  44  80 W6        29.79R
PHILLIPS       CLEAR     47  43  83 W3        29.84R
TOMAHAWK       CLEAR     48  44  87 W6        29.84R
MEDFORD        CLEAR     49  46  91 W7        29.86R
MERRILL        CLEAR     49  48  97 W7        29.83S FOG
$$

WIZ029-030-035-036-043>047-251100-
CENTRAL WISCONSIN

CITY           SKY/WX    TMP DP  RH WIND       PRES   REMARKS
WAUSAU         CLEAR     52  49  89 W9        29.83R
MOSINEE        CLEAR     50  50 100 W8        29.86R FOG
MARSHFIELD     CLEAR     50  47  89 W9        29.87R
STEVENS POINT  CLEAR     51  50  96 W8        29.86R FOG
WAUPACA        CLEAR     55  54  94 W6        29.84S FOG
WAUTOMA        NOT AVBL
WISC RAPIDS    CLEAR     52  50  93 W7        29.88R
CAMP DOUGLAS   NOT AVBL
$$

WIZ011>013-019>022-031-037>040-048>050-251100-
NORTHEAST WISCONSIN

CITY           SKY/WX    TMP DP  RH WIND       PRES   REMARKS
ANTIGO         CLEAR     50  49  96 W9        29.81S FOG
SHAWANO        CLEAR     56  53  90 SW6       29.81R FOG
OCONTO         CLEAR     53  53 100 W12       29.78R
STURGEON BAY   CLEAR     54  50  87 W12       29.78S
GREEN BAY      PTCLDY    55  53  93 W9        29.81R FOG
MANITOWOC      MOCLDY    55  54  94 W13       29.81R
APPLETON       MOCLDY    54  52  94 W13       29.83S FOG
CLINTONVILLE   CLEAR     54  52  94 W7        29.82R
OSHKOSH        MOCLDY    56  54  93 W7        29.84S FOG
$$

WIZ032>034-041-042-053>061-251100-
SOUTHWEST WISCONSIN

CITY           SKY/WX    TMP DP  RH WIND       PRES   REMARKS
LA CROSSE      FOG       48  46  93 CALM      29.92R VSB 1/2
SPARTA         FOG       47  47  99 CALM      29.92R VSB 1/4
VIROQUA        CLEAR     53  53 100 W5        29.93R
BOSCOBEL       FOG       56  55  97 SW3       29.93R VSB 1/4
PRAIRIE DU CHI CLEAR     54  51  91 W3        29.93S
PLATTEVILLE    MOCLDY    55  55  97 CALM      29.94S
$$

WIZ056-057-062-063-064-067-068-251100-
SOUTH CENTRAL WISCONSIN

CITY           SKY/WX    TMP DP  RH WIND       PRES   REMARKS
REEDSBURG      CLEAR     55  53  93 W6        29.90R
BARABOO/DELLS  CLEAR     55  51  89 W6        29.89R FOG
LONE ROCK      NOT AVBL
MINERAL POINT  FOG       55  54  94 W6        29.92S VSB 1/4
MADISON        CLEAR     57  54  89 VRB7      29.88S FOG
MIDDLETON      CLEAR     57  56  98 W8        29.89S
WATERTOWN      PTCLDY    50  50 100 SW5       29.87S FOG
MONROE         CLEAR     55  54  94 W13       29.91R FOG
JANESVILLE     MOCLDY    57  54  88 W5        29.90R FOG
$$

WIZ051-052-058>065-066-070>072-251100-
SOUTHEAST WISCONSIN

CITY           SKY/WX    TMP DP  RH WIND       PRES   REMARKS
MILWAUKEE      MOCLDY    57  53  86 W12G20    29.86F
WAUKESHA       CLOUDY    54  52  94 W14       29.88S FOG
MILWAUKEE/TIMM MOCLDY    55  52  88 W10       29.86S FOG
RACINE         MOCLDY    56  53  90 W9        29.87F
BURLINGTON     CLEAR     53  52  96 W5        29.88F FOG
KENOSHA        PTCLDY    56  54  93 W10       29.88S FOG
FOND DU LAC    MOCLDY    56  53  90 W13       29.85R
SHEBOYGAN      CLOUDY    55  52  89 W9        29.84R
WEST BEND      CLOUDY    55  52  88 W12       29.85S FOG
JUNEAU         FOG       51  51  99 SW9       29.87S VSB 3/4
$$

LSZ147-162-251100-
LAKE SUPERIOR

STATION/POSITION TIME  TEMP    WIND        PRES    WAVE
                       AIR SEA DIR/SP/G            HT/PER
                 (UTC) (F)     (DEG/KT/KT) (MB)    (FT/S)
W MID LAKE BUOY  0850   52 46  250/ 16/ 17 1005.6F   4/ 5
DEVILS ISLAND    0900   55     250/ 23/ 26 1007.7S
PORT WING        0940   56     250/ 12/ 18 1009.8R
SAXON HARBOR     0900   57     210/  7/ 10 1008.8F
$$

LMZ867-665-643>646-251100-
LAKE MICHIGAN

STATION/POSITION TIME  TEMP    WIND        PRES    WAVE
                       AIR SEA DIR/SP/G            HT/PER
                 (UTC) (F)     (DEG/KT/KT) (MB)    (FT/S)
CHAMBERS ISLAND  0900   53     200/  6/ 11 1007.8S
N MID LAKE BUOY  0850   53 51  230/ 12/ 14 1006.9F   4/ 6
NORTHPORT PIER   0900   55     250/  6/ 14 1006.8F
SISTER BAY       0913          250/ 16/ 18   N/A
ALGOMA LAKESHORE 0841          280/  7/ 10   N/A
KEWAUNEE LAKESHO 0900   56     280/  8/ 12 1008.0R
SHEBOYGAN LAKESH 0900   57 51  260/ 11/ 12 1009.9F
PORT WASHINGTON  0900   56     290/  7/ 14 1010.8
ATWATER BUOY     0900   56     270/ 10/ 14 1011.9F
MILWAUKEE LAKESH 0900   57     280/ 13/ 20   N/A
S MID LAKE BUOY  0850   56 54  240/ 12/ 12 1011.3S   1/ 3
KENOSHA   LAKESH 0900   56     270/  5/  9 1011.9S
$$

TC  - TEMPERATURE IN CELSIUS
VSB - VISIBILITY IN STATUTE MILES
WCI - WIND CHILL INDEX
HX  - HEAT INDEX




USA.gov is the U.S. government's official web portal to all federal, state and local government web resources and services.